www.pogodaiklimat.ru

Погода и климат >> Архив погоды >> Россия >> Магаданская область >> Мыс Алевина


ПОГОДА на Мысе Алевина

  • Прогноз погоды на Мысе Алевина
  • Монитор погоды на Мысе Алевина
  • Климат города

АРХИВ ПОГОДЫ на Мысе Алевина

Время (UTC), дата Ветер
(напр.,м/с)
 
Видим.   Явления Облачность Т
(С)
Тd
(С)
f
(%)
Тe
(С)
Тes
(С)
Комфортность P
(гПа)
Po
(гПа)
Тmin
(С)
Tmax
(С)
R
(мм)
S
(см)
15 14.02 СВ 2 50 км ясно -13.0 -16.5 75 -18 -18 1010.1 1001.5
18 14.02 В 3 50 км ясно -14.1 -17.6 75 -21 -21 1010.1 1001.5
21 14.02 СВ 3 50 км 8/8 1000 м
[Sc]
-13.4 -17.7 70 -20 -20 1010.8 1002.2 -14.7 29
00 15.02 СВ 2 50 км 8/8 1000 м
[Sc]
-10.9 -16.2 65 -15 -15 1011.3 1002.8
03 15.02 ЮВ 4 10 км слабый снег 8/8 1000 м
[Sc]
-9.6 -12.2 81 -17 -16 1011.4 1002.9
06 15.02 ЮВ 3 10 км слабый снег 10/10 1000 м
[Sc]
-10.3 -13.9 75 -16 -16 1011.8 1003.3
09 15.02 СВ 3 50 км {снег} 8/8 1000 м
[Sc]
-12.4 -14.4 85 -18 -18 1013.0 1004.4 -9.4 0.2
12 15.02 В 2 10 км слабый снег 10/10 1000 м
[Sc]
-13.1 -14.4 90 -18 -18 1013.2 1004.6
15 15.02 СВ 3 50 км в посл. час снег 6/6 1000 м
[Sc]
-13.9 -15.9 85 -20 -20 1013.1 1004.5
18 15.02 СВ 2 50 км {снег} 3/3 1000 м
[Sc]
-14.4 -17.1 80 -19 -19 1012.6 1004.0
21 15.02 С 1 50 км 8/8 1000 м
[Sc]
-13.4 -15.4 85 -16 -16 1012.8 1004.2 -15.0 0.7 34
00 16.02 С 1 50 км 3/3 1000 м
[Sc]
-13.4 -16.1 80 -16 -14 1013.1 1004.5
03 16.02 СЗ 5 50 км 1/1 1000 м
[Sc]
-11.7 -14.5 80 -20 -19 1012.8 1004.2
06 16.02 50 км н/о -11.7 -15.2 75 -18 -18 1013.3 1004.7
09 16.02 В 5 50 км 6/3 1000 м
[Sc Ac As]
-13.0 -15.0 85 -21 -21 1013.8 1005.2 -11.5
12 16.02 В 6 10 км слабый снег 10/10 1000 м
[Sc]
-12.2 -13.4 91 -21 -21 1013.9 1005.3 -11.8 0.7
15 16.02 ЮВ 9-10
{11}
10 км слабый снег 10/10 1000 м
[Sc]
-12.1 -13.4 90 -23 -23 1013.8 1005.2
18 16.02 В 11-13
{13}
2000 м метель {снег} 10/10 600 м
[Cb cap]
-12.1 -13.4 90 -24 -24 1013.4 1004.8
21 16.02 В 6
{10}
10 км слабый снег {метель} 10/10 1000 м
[Sc]
-11.3 -13.3 85 -20 -20 1013.5 1004.9 -13.1 0.3 32
00 17.02 ЮВ 8-10
{10}
50 км {снег, метель} 9/9 600 м
[St]
-10.4 -11.7 90 -20 -20 1013.7 1005.1
03 17.02 ЮВ 9-11
{11}
50 км 6/5 600 м
[St Ac lent]
-10.2 -12.2 85 -20 -20 1012.8 1004.3
06 17.02 ЮВ 10-13
{13}
50 км 6/5 600 м
[St Ac lent]
-10.5 -11.8 90 -21 -21 1012.4 1003.9
09 17.02 В 9-11
{13}
10 км слабый снег 10/10 1000 м
[Sc]
-10.3 -11.6 90 -21 -21 1012.9 1004.4 -10.0 0.0
12 17.02 ЮВ 11-13
{14}
50 км позёмок {снег, метель} 10/10 1000 м
[Sc]
-11.3 -13.3 85 -23 -23 1012.4 1003.8
15 17.02 В 9-11
{13}
50 км позёмок {метель} 3/3 1000 м
[Sc]
-11.9 -16.3 70 -22 -22 1012.0 1003.4
18 17.02 В 5
{11}
50 км {метель} ясно -13.5 -16.2 80 -22 -22 1010.9 1002.3
21 17.02 ЮВ 5 50 км 4/4 1000 м
[Sc]
-14.7 -16.7 85 -23 -23 1009.5 1000.9 -15.0 0.0 32
00 18.02 ЮВ 4 50 км 8/0
[Ci fib]
-14.2 -17.7 75 -22 -21 1008.8 1000.2
03 18.02 ЮВ 1 50 км 8/3 1000 м
[Sc Ci fib]
-12.4 -15.9 75 -15 -13 1006.8 998.2
06 18.02 СЗ 3 50 км 3/0
[Ci fib]
-12.8 -14.8 85 -19 -19 1004.3 995.7
09 18.02 С 4 50 км ясно -13.8 -15.8 85 -21 -21 1003.1 994.6 -11.9
12 18.02 С 1 50 км 4/4 1000 м
[Sc]
-10.5 -17.8 55 -13 -13 1000.9 992.5
15 18.02 50 км н/о -10.2 -16.5 60 -15 -15 999.0 990.6
18 18.02 СВ 5 50 км 9/9 1000 м
[Sc]
-7.5 -13.5 62 -15 -15 997.7 989.4
21 18.02 В 8-11
{11}
50 км 10/10 1000 м
[Sc]
-4.9 -10.2 66 -13 -13 997.1 988.9 -14.0 32
00 19.02 В 10-15
{17}
50 км позёмок {метель} 10/10 1000 м
[Sc]
-3.6 -9.7 63 -12 -12 996.5 988.3
03 19.02 В 13-18
{18}
50 км сильный позёмок {метель} 10/4 1000 м
[Sc Ac und]
-2.5 -8.5 63 -12 -12 995.5 987.3
06 19.02 В 13-17
{21}
50 км сильный позёмок {метель} 10/3 1000 м
[Sc Ac und]
-2.0 -9.5 56 -11 -11 995.0 986.8
09 19.02 В 12-17
{18}
50 км позёмок {метель} 10/10 1000 м
[Sc]
-1.6 -9.8 54 -10 -10 996.1 987.9 -1.5
12 19.02 В 13-18
{23}
50 км позёмок {метель} 10/10 1000 м
[Sc]
-1.6 -10.8 49 -11 -11 996.2 988.0
15 19.02 В 12-19
{19}
50 км 4/4 1000 м
[Sc]
-2.4 -10.6 53 -11 -11 996.4 988.2
18 19.02 В 13-18
{24}
50 км 3/3 1000 м
[Sc]
-1.8 -11.1 49 -11 -11 996.4 988.2
21 19.02 В 11-15
{20}
50 км 8/5 600 м
[Cb cap Ac inh]
-1.7 -12.0 45 -10 -10 997.3 989.1 -2.8 29
00 20.02 СВ 6
{17}
50 км 8/6 1000 м
[Sc Ac lent]
-1.5 -11.1 48 -8 -8 997.9 989.7
03 20.02 С 6
{11}
50 км 6/5 1000 м
[Sc Ac lent]
-0.7 -11.2 45 -7 -6 997.3 989.1
06 20.02 СВ 6-10
{14}
50 км 9/8 1000 м
[Sc Ac trans]
-1.6 -9.8 54 -8 -8 997.3 989.1
09 20.02 СВ 11-11
{16}
50 км 10/10 1000 м
[Sc]
-3.8 -10.9 58 -13 -13 998.6 990.4 +0.4
12 20.02 СВ 11-17
{19}
50 км 4/4 1000 м
[Sc]
-4.8 -12.5 55 -14 -14 999.4 991.2
15 20.02 В 9-13
{17}
50 км 3/3 1000 м
[Sc]
-4.3 -11.7 56 -13 -13 1000.3 992.1
18 20.02 В 8-11
{11}
50 км ясно -4.3 -8.1 75 -13 -13 1000.8 992.6
21 20.02 В 11-11
{11}
50 км 10/10 1000 м
[Sc]
-3.5 -9.6 63 -13 -13 1000.9 992.7 -5.1 29
00 21.02 СВ 6
{13}
10 км слабый снег 10/10 1000 м
[Sc]
-3.3 -6.5 78 -11 -11 1001.3 993.1
03 21.02 В 11-17
{18}
1000 м слабый ливневой снег 10/10 600 м
[Cb cap]
-2.8 -4.1 91 -12 -12 1000.6 992.4
06 21.02 В 12 10 км метель {ливн. осадки, снег} 10/10 600 м
[Cb cap]
-2.5 -5.8 78 -12 -12 1001.3 993.1
09 21.02 В 13-18
{18}
50 км сильный позёмок {метель} 10/10 1000 м
[Sc]
-3.5 -8.3 69 -13 -13 1002.8 994.6 -2.3 3

 

Местоположение метеостанции Мыс Алевина (Магаданская область, Россия): широта 58.83 долгота 151.30 высота над уровнем моря 65 м.

В архиве по умолчанию представлена погода на Мысе Алевина за последнюю неделю. Архивные данные за месяц целиком и за предыдущие месяцы, начиная с января 2011 года, Вы можете получить, выбрав интересующий диапазон дат из раскрывающегося списка и нажав кнопку "Ввод!".

Внимание! Время в таблицах - всемирное. Для получения местного времени необходимо прибавить поправку, которая на Мысе Алевина равна 11 ч.

Смотрите также архив погоды в соседних городах и на ближайших метеорологических станциях:

Погода в Оле (Магаданская область, Россия) (81 км)
Погода в Магадане (Магаданская область, Россия) (87 км)
Погода в Армани (Магаданская область, Россия) (115 км)
Погода на Мысе Братьев (Магаданская область, Россия) (119 км)
Погода на Остров Спафарьева (Магаданская область, Россия) (137 км)
Погода в Палатке (Магаданская область, Россия) (143 км)
Погода в Талоне (Магаданская область, Россия) (185 км)
Погода в Брохово (Магаданская область, Россия) (188 км)
Погода в Мадауне (Магаданская область, Россия) (200 км)
Погода в Талае (Магаданская область, Россия) (262 км)

Пояснения к столбцам:

Ветер - указаны скорость ветра в м/с - средняя за 10 мин, порывы в срок и между сроками (в фигурных скобках) и направление, откуда дует ветер: С - северный, СВ - северо-восточный, В - восточный, ЮВ - юго-восточный, Ю - южный, ЮЗ - юго-западный, З - западный, СЗ - северо-западный.
Видимость - горизонтальная дальность видимости в метрах или километрах. При видимости от 1 до 10 км при отсутствии осадков обычно наблюдается дымка, при ухудшении видимости до 1 км и менее - туман. В сухую погоду видимость может ухудшаться дымом, пылью или мглою.
Явления - указаны атмосферные явления, наблюдавшиеся в срок или в последний час перед сроком; фигурными скобками обозначены явления, наблюдавшиеся между сроками (за 1-3 часа до срока); квадратными скобками обозначены град или гололедные отложения с указанием их диаметра в мм.
Облачность - указаны через наклонную черту общая и нижняя облачность в баллах и высота нижней границы облаков в метрах; квадратными скобками обозначены формы облаков: Ci - перистые, Cs - перисто-слоистые, Cc - перисто-кучевые, Ac - высококучевые, As - высокослоистые, Sc - слоисто-кучевые, Ns - слоисто-дождевые, Cu - кучевые, Cb - кучево-дождевые. Подробнее классификацию облаков см. в Атласе облаков (PDF).
T - Температура воздуха - температура, измеренная на высоте 2 м над землей.
Td - Температура точки росы - температура, при понижении до которой содержащийся в воздухе водяной пар достигнет насыщения.
f - Относительная влажность воздуха - влажноcть воздуха, измеренная на высоте 2 м над землей.
Te - Эффективная температура - температура, которую ощущает одетый по сезону человек в тени. Характеристика душности погоды. При расчете учитывается влияние влажности воздуха и скорости ветра на теплоощущения человека.
Tes - Эффективная температура на солнце - температура, которую ощущает человек, с поправкой на солнечный нагрев. Характеристика знойности погоды. Зависит от высоты солнца над горизонтом, облачности и скорости ветра. Ночью, в пасмурную погоду, а также при ветре 12 м/с и более поправка равна нулю.
P - Атмосферное давление - приведенное к уровню моря атмосферное давление.
Po - Атмосферное давление - измеренное на уровне метеостанции атмосферное давление.
Tmin - Минимальная температура - минимум температуры воздуха на высоте 2 м над землей.
Tmax - Максимальная температура - максимум температуры воздуха на высоте 2 м над землей.
R - Количество осадков - Количество выпавших осадков, мм. При наведении курсора мыши на число - период времени, за который выпало указанное количество осадков.
S - Снежный покров - Высота снежного покрова, см. При наведении курсора мыши на число - состояние снежного покрова и степень покрытия местности в баллах.